Wind_Speed
18 19 19 20 20 20 20 19 19 19 18 18 18 18 18 18 19 19 19 19 20 20 21 21 22 22 23 23 23 24 24 25 25 25 25 25 25 25 25 25 25 26 26 26 27 27 28 28 29 29 29 29 29 29 28 27 26 26 27 28 29 29 28 28 28 27 27 27 28
18 19 19 19 20 20 20 19 19 18 18 18 18 18 18 18 19 19 20 20 20 20 21 21 22 22 23 23 23 24 24 25 25 25 25 26 26 26 26 26 26 26 27 27 27 27 27 27 28 28 28 29 29 29 29 28 27 27 27 28 28 28 28 28 28 28 28 28 29
18 19 19 19 19 19 19 19 19 18 18 18 18 18 18 18 19 20 20 20 20 20 21 21 22 22 23 23 23 24 24 25 25 26 26 26 26 26 26 27 27 27 27 27 27 27 27 27 27 27 27 28 28 28 29 28 28 28 28 28 28 28 28 27 27 27 28 28 29
18 18 19 19 19 19 19 19 19 18 18 18 18 18 18 18 19 20 20 21 20 20 21 22 22 23 23 23 24 24 24 25 25 26 26 26 26 26 26 27 27 27 27 27 27 26 26 26 26 27 27 27 27 28 28 28 28 27 27 27 27 27 27 27 27 27 27 28 29
18 18 19 19 19 19 19 19 18 18 18 18 17 18 18 18 19 20 21 21 21 21 21 22 23 23 23 24 24 24 25 25 25 26 26 26 26 26 26 27 27 27 27 27 26 26 26 26 26 26 26 26 27 27 27 27 27 27 27 27 27 26 26 26 26 26 27 28 28
18 18 18 19 18 18 18 18 18 18 17 17 17 18 18 18 19 20 20 21 21 22 22 23 23 24 24 24 25 25 25 25 26 26 26 26 27 27 27 27 27 27 27 27 26 25 25 25 25 25 26 26 26 27 26 26 26 26 26 26 26 26 26 26 25 26 26 27 27
18 18 18 18 18 18 18 18 18 17 17 17 17 17 18 18 19 20 20 21 22 22 23 24 24 25 25 25 25 26 26 26 26 26 26 27 27 27 27 27 27 27 27 27 26 25 24 24 24 25 25 26 26 26 26 26 26 26 26 26 26 26 25 25 25 25 25 26 27
17 18 18 18 18 18 18 18 17 17 17 17 17 17 18 18 19 20 20 21 22 22 23 24 25 25 26 26 26 26 27 27 27 27 27 27 27 28 28 27 27 27 27 27 26 25 24 23 23 24 24 25 26 26 26 26 25 25 25 25 25 25 25 25 25 25 25 26 26
17 17 18 18 18 18 18 18 17 17 17 17 17 17 17 18 19 19 20 21 21 22 23 24 25 25 26 26 27 27 27 27 27 27 28 28 28 28 28 28 28 28 27 26 25 24 23 23 23 23 24 24 25 26 26 25 25 25 25 24 24 25 25 25 24 24 24 25 26
17 17 18 18 18 18 18 17 17 17 17 17 17 17 17 18 18 19 19 20 21 22 22 23 24 25 26 26 26 27 27 27 27 28 28 28 28 28 28 28 28 28 27 26 25 24 23 22 22 22 23 23 24 25 25 25 25 25 24 24 24 24 24 24 24 23 24 24 25
17 17 18 18 18 18 18 17 17 17 16 17 17 17 17 17 18 18 19 20 20 21 22 22 23 24 25 25 26 26 26 27 27 27 28 28 28 28 28 28 28 28 27 26 24 23 22 22 22 22 22 23 23 24 25 25 25 24 24 24 23 24 24 23 23 23 23 24 25
17 17 18 18 18 18 18 17 17 17 17 17 17 17 17 18 18 19 19 20 20 21 22 22 23 23 24 25 25 25 26 26 27 27 27 28 28 28 28 28 28 28 26 25 23 22 22 22 22 22 22 22 23 23 24 24 24 24 24 23 23 23 23 23 22 22 23 23 24
17 17 17 18 18 18 17 17 17 17 17 17 17 17 18 18 18 19 19 20 20 21 21 22 22 23 23 24 24 25 25 26 26 27 27 28 28 28 28 28 28 27 26 24 23 22 22 22 21 22 22 22 22 23 23 24 24 24 24 23 23 23 22 22 22 22 23 23 25
17 17 17 17 18 18 17 17 17 17 17 17 17 17 18 18 18 18 19 20 20 21 21 22 22 22 23 24 24 24 25 25 26 26 27 27 28 28 28 28 28 27 25 24 23 22 22 22 21 21 21 21 22 22 23 24 24 24 23 22 22 22 21 21 21 22 23 23 25
17 17 17 17 17 17 17 17 17 17 17 17 17 17 18 18 18 18 19 19 20 21 21 22 22 23 23 23 24 24 24 25 26 26 27 27 28 28 28 28 28 26 25 24 23 22 22 21 21 21 20 21 21 22 23 24 25 24 23 22 21 20 20 19 21 22 22 23 25
17 17 17 17 17 17 17 17 17 17 17 17 17 17 17 18 18 18 19 19 20 21 21 22 23 23 23 23 24 24 24 25 26 26 27 28 28 28 28 28 27 26 25 24 24 23 22 21 20 20 20 20 21 22 24 25 26 25 23 21 20 19 18 19 21 22 22 23 24
16 17 17 17 17 17 17 17 17 17 17 17 17 17 17 18 18 18 19 19 20 21 21 22 23 23 24 24 24 24 25 25 26 26 27 27 28 28 28 27 26 25 25 25 24 24 23 22 20 20 19 20 21 23 24 26 27 26 24 21 18 17 18 20 21 21 21 22 24
16 16 17 17 17 17 17 17 17 17 17 17 17 17 17 18 18 18 19 19 20 21 22 22 23 23 24 24 24 25 25 25 26 26 26 26 26 26 26 26 25 25 25 25 25 24 23 22 21 20 19 20 21 24 26 27 28 26 23 20 17 17 19 20 20 19 19 20 23
16 16 16 16 16 16 17 16 17 17 17 17 17 17 17 17 18 18 18 19 19 20 21 22 23 23 24 24 24 24 24 25 25 25 25 25 25 25 25 25 25 25 25 25 25 24 24 23 22 21 20 21 23 26 28 30 29 26 22 19 17 18 19 19 18 16 17 19 22
16 16 16 16 16 16 16 16 16 17 17 17 17 17 17 17 17 18 18 19 19 20 21 22 23 23 23 24 24 24 24 24 24 24 24 24 23 23 24 24 24 25 25 25 25 24 24 24 23 22 22 23 25 28 31 33 30 26 22 19 18 19 20 18 16 15 16 18 21
16 16 16 16 16 16 16 16 16 17 17 17 17 17 17 17 17 17 18 18 19 20 21 21 22 23 23 23 23 23 23 23 23 23 23 23 23 23 23 24 24 25 25 25 24 24 24 24 23 23 23 25 27 30 34 34 31 26 23 21 20 20 19 16 14 15 16 18 20
16 16 16 16 16 16 16 16 16 17 17 17 17 17 17 17 17 17 17 18 19 19 20 21 22 22 22 22 22 22 22 22 22 22 23 23 23 23 23 23 24 25 25 24 24 24 24 24 24 24 26 28 30 33 35 35 32 28 26 24 21 20 18 16 15 15 17 18 19
16 16 16 15 16 16 16 16 16 16 17 17 17 16 16 16 17 17 17 18 18 19 20 20 21 21 22 22 22 22 22 22 22 22 23 23 23 24 23 24 24 24 24 24 24 24 24 25 25 26 28 30 33 35 36 35 34 32 30 26 20 18 18 17 16 17 17 18 19
16 15 15 15 15 15 16 16 16 16 16 16 16 16 16 16 17 17 17 18 18 19 19 20 20 21 21 21 21 22 22 23 23 24 24 24 24 24 23 23 23 23 23 23 23 23 24 24 26 27 29 31 33 34 35 36 36 35 31 25 19 18 18 18 18 18 18 19 20
15 15 15 15 15 15 15 16 16 16 16 16 16 16 16 16 17 17 17 18 18 18 19 20 20 21 21 21 21 22 22 23 23 24 24 24 24 23 23 23 23 22 22 22 22 23 23 24 25 26 27 29 31 33 34 36 37 34 29 22 19 19 19 19 19 18 19 19 20
15 15 15 15 15 15 15 16 16 16 16 16 16 16 16 16 17 17 18 18 18 18 19 20 20 21 21 22 22 22 22 22 23 24 24 24 24 23 23 22 22 22 21 21 22 23 24 24 25 25 26 27 28 31 34 36 36 31 26 22 21 22 21 20 19 19 19 20 21
15 15 15 15 15 15 15 15 16 16 16 16 16 16 16 16 17 17 18 18 18 18 19 19 20 21 21 22 22 22 22 22 22 23 23 24 23 23 22 22 21 21 21 22 22 23 24 25 25 25 26 26 28 29 32 34 33 30 27 26 27 26 24 21 19 18 19 20 21
15 15 15 15 15 15 15 15 15 16 16 16 15 15 16 16 16 17 18 18 18 18 18 19 20 20 21 22 22 22 22 22 22 22 22 23 23 22 22 21 21 21 21 22 23 23 24 25 25 26 26 27 27 28 29 30 31 30 30 30 31 30 27 22 19 18 18 20 20
15 15 15 14 14 14 14 15 15 15 15 15 15 15 15 16 16 17 17 18 18 18 19 19 20 20 21 21 22 22 22 22 21 22 22 22 22 21 21 20 20 20 21 22 23 24 24 25 26 26 27 27 26 27 27 27 27 27 28 29 31 30 28 23 19 17 18 19 20
14 14 14 14 14 14 14 14 15 15 15 14 15 15 15 16 16 17 17 17 18 18 19 19 20 20 20 21 22 22 22 22 21 21 21 21 21 20 20 20 20 20 21 21 22 23 24 25 26 27 27 26 26 26 26 27 26 25 26 28 30 30 28 23 19 17 18 20 21
14 14 14 13 13 13 14 14 14 14 14 14 14 14 15 16 16 16 17 17 17 18 18 19 19 20 20 21 21 22 22 22 21 21 21 21 20 20 19 19 19 19 20 21 22 24 25 25 26 26 26 26 26 26 28 28 28 27 28 30 32 31 28 22 18 17 18 19 21
14 14 13 13 13 13 13 13 14 14 14 14 14 14 14 15 15 16 16 16 17 18 18 19 19 20 21 21 22 22 23 22 21 20 20 20 20 19 19 18 18 19 20 21 22 24 25 25 25 25 25 26 27 29 30 31 30 30 30 31 34 33 28 22 18 16 17 19 20
13 13 13 13 12 12 13 13 13 13 13 13 13 13 14 15 15 15 15 16 17 17 18 19 20 20 21 22 23 23 23 22 21 20 19 19 19 18 18 18 18 19 20 21 22 24 25 25 25 25 26 27 29 31 32 32 30 29 30 32 34 33 29 22 18 16 16 17 18
13 13 12 12 12 12 12 12 13 13 12 12 12 13 14 14 15 15 15 16 16 17 18 19 19 20 21 22 23 23 23 22 21 20 19 18 18 18 18 18 18 19 20 21 23 25 26 26 26 26 28 29 31 32 32 31 30 29 29 31 34 33 29 22 17 15 15 16 16
13 12 12 12 12 11 12 12 12 12 12 12 12 12 13 13 14 14 15 16 16 17 18 18 19 20 21 22 23 23 23 22 21 20 19 18 18 18 18 18 18 19 20 22 24 25 26 27 27 29 30 32 31 31 30 30 29 29 29 31 34 33 28 21 17 16 15 15 15
13 12 12 11 11 11 11 11 11 11 11 11 11 12 12 13 13 14 15 15 16 17 18 19 20 20 21 22 23 23 23 22 21 20 19 18 18 18 19 19 19 20 21 23 25 26 27 28 29 31 32 32 29 28 29 29 28 28 28 30 32 30 26 21 18 17 16 15 14
13 12 11 11 11 10 10 11 10 10 10 11 11 11 12 12 13 14 14 15 16 17 18 19 20 21 22 23 23 23 23 22 21 20 18 18 18 19 19 20 20 21 22 23 25 27 28 29 30 32 33 30 27 26 28 28 28 28 28 29 29 28 26 23 21 19 16 14 14
12 12 11 11 10 10 10 10 10 10 10 10 10 11 11 12 13 13 14 15 17 18 19 20 21 21 22 23 23 23 22 20 19 19 18 17 17 18 19 20 20 21 22 23 25 27 28 29 31 33 31 26 25 26 28 27 27 28 28 27 26 26 26 26 23 20 16 14 14
12 12 11 10 10 10 9 9 9 9 10 10 10 10 11 12 12 13 14 15 16 18 19 20 21 21 22 22 23 22 21 19 18 17 16 16 16 17 18 19 20 20 21 23 25 26 28 30 32 30 26 23 25 27 27 26 27 27 28 28 26 25 25 25 22 19 16 14 15
12 12 11 10 10 9 9 9 9 9 9 9 10 10 10 11 12 13 14 15 16 17 18 20 20 21 22 22 22 22 20 18 16 15 15 15 15 15 16 17 18 19 21 22 24 26 28 30 29 25 22 23 26 27 26 25 25 26 27 28 27 26 25 23 20 17 16 16 17
13 12 11 10 10 9 9 8 8 8 8 9 9 10 10 11 12 13 14 15 16 17 18 19 20 21 21 21 21 21 20 18 16 14 13 13 13 14 14 15 17 18 20 21 23 26 28 29 25 22 22 24 26 26 25 24 24 25 27 28 28 27 25 22 19 17 16 16 17
Wind_Direction
318 319 320 322 323 325 327 327 327 327 327 328 328 329 329 328 328 328 328 329 329 329 329 329 329 328 328 327 324 323 322 322 323 323 323 323 322 321 321 320 321 322 325 328 331 334 336 337 337 337 337 338 338 339 339 338 336 333 331 331 332 333 335 336 336 335 332 329 329
317 318 319 321 323 324 326 326 326 326 326 327 327 326 326 325 325 325 326 327 328 327 327 326 326 325 324 323 322 321 321 321 322 323 322 322 321 321 320 320 320 321 323 325 328 331 334 335 336 336 336 336 336 337 338 339 338 336 334 334 335 336 337 337 337 335 332 330 331
316 317 319 320 322 323 325 325 325 325 325 325 325 324 324 323 323 323 324 325 326 325 323 322 322 322 322 321 321 321 321 322 322 322 322 322 321 321 321 320 320 320 321 323 325 328 331 333 334 334 334 334 333 334 336 338 338 337 336 336 337 338 338 337 336 334 332 331 332
314 316 318 320 321 323 324 324 324 324 324 323 323 323 323 322 321 321 322 323 322 321 320 319 319 320 320 320 321 321 322 323 323 323 322 322 322 322 322 321 320 320 320 321 323 325 328 329 331 332 332 332 331 331 332 334 335 336 336 337 338 339 339 337 336 335 333 333 334
313 315 317 319 320 322 323 323 323 323 323 323 323 323 323 322 321 320 320 319 318 317 317 316 316 317 318 319 319 320 321 322 323 323 323 323 323 323 323 322 321 320 320 321 322 324 325 326 327 328 329 330 329 329 329 330 332 333 334 336 338 339 339 339 338 337 336 337 337
312 315 316 318 319 320 321 321 322 322 322 323 323 323 322 321 320 319 318 317 316 315 314 313 313 314 315 316 317 318 319 321 322 322 323 323 324 324 323 322 321 320 320 321 322 322 323 323 323 325 326 327 327 327 327 327 328 329 331 334 336 338 338 339 339 338 338 339 340
312 314 316 317 318 319 320 320 321 322 323 324 324 324 323 321 320 318 316 316 315 314 312 311 311 312 312 313 314 316 317 318 319 320 321 322 323 324 323 322 321 321 320 321 322 322 321 321 320 321 323 324 325 325 325 325 324 325 327 330 334 336 336 336 337 337 338 339 340
311 313 315 316 317 318 318 319 320 322 323 325 326 326 324 322 320 319 317 316 314 312 311 311 310 310 310 311 312 313 314 315 317 318 320 321 322 322 323 322 322 321 320 321 321 321 320 318 318 318 320 321 322 323 324 323 322 322 324 327 331 333 334 334 334 335 336 338 339
310 312 313 315 315 316 317 319 320 322 324 326 326 326 325 323 322 320 318 316 315 314 312 311 310 310 309 309 310 311 312 313 315 317 318 319 320 321 322 322 321 321 321 321 321 321 319 316 315 315 316 318 320 321 322 322 320 319 320 324 328 331 332 332 332 333 335 337 339
309 311 313 314 315 316 317 318 320 322 324 325 325 325 325 324 323 322 320 319 318 317 315 313 312 311 310 310 310 310 311 312 314 315 317 318 319 320 321 321 321 320 321 321 322 321 318 315 313 313 314 315 317 319 320 320 319 317 318 321 325 329 330 330 330 331 334 336 339
308 310 312 313 314 316 317 318 320 321 322 324 324 325 325 325 324 324 323 322 321 320 319 318 315 313 312 312 312 311 312 312 313 314 316 317 318 319 320 320 320 320 321 322 323 322 319 316 313 312 312 313 315 317 319 320 318 316 316 319 323 327 329 328 329 331 334 337 340
307 309 311 313 314 315 316 318 319 320 322 323 324 324 325 325 325 325 324 323 322 322 322 321 318 316 315 315 314 314 313 313 314 314 315 316 318 318 318 318 319 320 321 324 325 324 321 317 314 312 311 312 314 316 319 319 318 316 315 317 322 326 328 327 328 330 334 338 341
305 308 310 312 313 315 316 317 319 320 322 323 324 325 325 325 325 325 324 324 323 323 323 322 321 320 319 318 317 317 316 315 315 315 315 316 317 317 317 317 318 320 322 324 326 326 323 320 316 313 311 311 313 316 319 320 318 315 314 316 321 326 327 326 328 330 334 338 341
305 307 309 311 313 314 316 317 319 321 322 324 325 325 325 324 324 323 323 323 324 323 323 323 323 322 321 321 320 319 317 316 316 315 316 316 317 317 316 317 318 319 322 324 326 326 324 322 318 315 312 312 314 317 319 320 318 315 313 314 320 324 326 326 328 332 335 339 342
303 306 308 311 313 314 316 317 319 320 322 324 324 324 324 323 322 322 322 323 323 324 324 324 324 324 323 322 321 320 319 318 317 316 316 316 317 317 317 317 317 319 321 323 325 325 324 322 319 316 313 312 314 317 319 319 317 313 311 312 317 322 325 328 331 334 337 340 342
302 305 308 310 312 314 315 317 318 320 321 323 323 323 322 322 322 322 323 323 324 324 325 325 325 324 324 323 323 322 321 319 319 318 317 317 317 317 317 317 317 319 321 322 323 324 323 322 319 316 314 313 315 317 319 318 315 311 308 308 314 321 327 332 335 336 338 340 342
301 304 307 309 311 313 315 316 318 319 320 321 322 321 322 322 322 323 324 325 325 326 326 326 326 325 325 325 324 323 322 321 320 319 318 318 317 317 317 317 318 319 321 322 322 322 322 322 320 317 315 315 316 318 318 317 312 307 303 305 313 323 332 337 337 336 337 340 342
300 303 306 309 311 313 314 316 317 318 319 320 320 321 321 322 323 324 325 326 327 327 327 327 327 326 326 326 325 324 323 322 321 320 319 318 317 316 316 317 319 320 321 321 321 321 321 321 321 319 318 318 319 319 319 315 309 303 299 302 314 327 336 339 337 336 337 340 343
299 303 305 308 310 312 314 315 316 317 317 318 319 320 321 322 324 325 327 328 328 328 328 328 328 327 327 326 326 325 324 322 321 320 319 318 318 317 318 320 321 321 321 320 320 320 321 321 321 321 321 322 322 322 320 315 308 300 296 301 315 329 337 339 337 335 337 341 343
299 302 305 307 310 311 313 314 315 316 316 317 318 320 321 323 325 327 328 329 330 329 329 328 328 328 327 327 326 326 325 324 323 322 321 321 321 322 322 323 322 322 321 320 320 320 321 321 321 323 324 325 325 324 321 316 308 300 295 299 314 329 338 340 338 337 338 341 343
298 301 304 307 309 311 312 313 314 315 316 316 318 319 322 324 326 327 329 330 330 330 329 329 328 328 328 328 328 328 327 327 326 325 325 326 326 327 327 326 324 322 321 321 321 321 321 321 322 324 326 327 326 324 320 315 309 300 295 298 312 329 340 342 340 338 338 340 341
297 300 303 306 308 310 311 312 313 314 315 316 317 319 321 323 326 328 329 330 330 330 330 329 329 329 329 329 330 330 330 330 330 331 331 332 332 332 330 328 325 323 323 323 323 323 322 322 324 325 326 325 323 320 318 315 310 303 298 300 312 330 343 344 341 338 337 338 339
295 299 301 304 307 309 310 311 312 313 314 315 316 318 320 323 326 328 329 330 330 330 329 329 329 330 331 332 332 333 334 335 336 337 337 336 335 334 332 329 327 325 325 326 326 325 324 324 324 324 323 321 318 316 316 315 312 307 301 300 314 334 346 347 343 339 337 336 336
294 297 300 303 305 308 309 311 311 312 312 313 315 318 321 324 326 328 329 329 329 329 329 329 330 331 333 334 335 336 338 339 339 340 339 338 336 334 332 331 330 329 329 330 329 327 324 322 321 319 318 317 315 315 315 315 313 307 301 301 317 337 347 349 346 341 337 334 331
293 296 299 301 304 306 308 310 310 311 311 313 315 318 321 324 326 327 327 328 328 328 329 330 332 333 335 336 338 340 341 341 341 340 339 338 337 336 335 334 333 334 334 333 332 327 322 318 316 316 315 315 315 315 316 316 313 307 302 303 320 335 343 346 346 343 339 332 326
292 295 297 300 302 305 308 309 309 310 311 313 316 319 322 324 325 325 326 326 327 329 330 332 334 335 337 339 341 342 342 342 341 339 338 337 337 337 337 337 337 338 338 337 333 327 322 317 317 316 316 316 316 317 318 319 317 313 309 312 322 330 334 337 341 343 340 332 321
290 293 295 298 301 305 307 308 309 309 311 313 316 319 322 323 324 324 325 326 328 330 331 333 335 337 338 340 341 342 342 342 340 339 338 337 338 339 339 340 340 340 341 339 333 326 321 318 318 318 318 318 318 319 321 323 324 324 322 322 323 324 325 327 332 338 337 329 319
288 291 294 297 301 304 306 307 308 309 311 313 316 319 322 323 323 324 324 326 328 330 333 335 337 338 339 340 341 341 341 341 340 339 338 337 338 339 340 341 342 342 342 339 332 325 321 320 320 320 320 320 320 320 322 324 326 327 326 325 324 321 319 318 323 330 331 325 316
287 290 293 296 299 303 305 306 307 308 311 314 317 320 321 322 322 323 324 326 329 332 335 337 338 339 339 340 340 340 340 340 340 339 337 337 338 339 341 342 343 343 343 340 334 327 323 322 322 321 321 321 320 319 318 317 319 322 325 326 324 320 316 312 314 320 323 320 313
285 288 291 294 298 301 303 305 306 308 311 314 318 319 321 321 322 323 325 327 331 334 337 338 338 339 340 340 339 339 339 340 339 338 337 336 337 339 342 343 344 344 344 342 337 330 326 324 323 323 322 321 319 315 312 310 312 317 323 327 326 321 314 307 306 310 315 314 310
283 286 289 293 296 299 301 304 306 308 311 314 317 319 320 321 322 324 326 329 333 335 337 337 338 339 339 339 339 339 339 339 339 338 336 336 337 338 341 343 344 345 345 344 339 333 327 325 324 324 323 321 318 313 309 306 307 311 319 325 326 322 314 304 300 303 308 310 310
281 284 287 290 294 297 300 303 305 308 311 314 317 319 321 321 323 326 329 331 334 335 336 338 338 339 339 339 339 339 339 339 338 337 336 335 335 337 339 342 344 345 345 345 341 334 328 326 325 325 324 321 318 314 311 309 308 311 318 324 326 322 314 302 295 297 304 310 312
279 282 285 288 292 296 299 302 304 307 311 314 318 320 321 322 324 327 330 333 334 335 337 338 338 338 338 339 339 339 339 338 337 336 335 334 334 335 338 341 343 344 344 344 340 334 328 326 325 325 324 322 320 319 320 322 322 323 325 327 327 323 315 302 293 294 303 312 317
276 279 283 287 290 294 297 300 303 307 311 315 320 322 322 323 325 328 331 333 335 336 338 339 339 338 338 339 339 339 338 338 337 336 334 333 334 335 337 339 342 343 344 342 339 334 328 326 325 324 323 322 322 327 334 340 339 337 334 333 331 326 317 303 293 294 305 316 323
273 276 280 284 288 292 295 299 302 307 312 317 321 323 323 324 326 329 333 335 336 337 338 339 339 339 338 339 339 339 338 338 337 336 335 334 334 334 336 338 341 343 343 341 340 336 331 327 325 324 323 322 325 334 343 347 345 342 341 341 339 331 320 306 296 297 307 319 328
271 274 277 281 285 289 293 297 302 307 313 318 321 322 323 325 328 332 334 336 336 338 339 340 340 340 340 340 340 340 339 338 337 336 335 334 334 334 335 337 341 344 345 342 341 338 334 329 326 325 324 323 329 339 347 349 348 348 350 352 349 341 329 316 307 304 308 319 331
269 272 275 278 282 287 291 296 301 307 313 318 320 321 323 326 331 334 336 336 336 338 340 341 341 341 341 341 340 340 340 339 337 335 334 334 334 334 335 337 341 344 345 345 343 339 335 331 329 327 326 327 336 345 351 352 354 355 356 358 357 353 345 334 322 312 309 319 333
266 270 272 276 280 284 289 294 300 307 312 316 319 321 325 329 333 336 337 337 337 338 339 341 340 341 341 341 340 340 340 339 337 335 334 334 334 335 335 336 340 344 346 347 345 340 335 332 330 329 331 336 346 352 354 357 359 358 357 357 359 360 356 347 333 319 313 321 335
264 267 270 273 277 281 286 292 299 305 310 314 317 322 326 330 334 337 339 339 338 338 339 339 339 340 340 340 339 339 340 340 338 335 333 333 334 335 336 336 340 344 347 349 347 342 337 333 332 335 341 349 354 356 357 0 1 359 356 355 357 359 359 352 340 328 322 328 337
262 264 268 270 274 278 283 289 296 303 309 313 318 322 327 331 335 339 340 340 339 339 338 338 339 339 339 339 338 338 339 340 340 337 334 333 334 336 338 339 342 345 349 351 348 343 338 335 337 345 354 358 357 357 360 2 0 358 356 355 357 359 0 357 349 341 336 337 339
259 262 265 267 271 274 279 286 293 301 308 313 317 322 327 332 337 340 341 341 340 339 338 338 339 339 339 339 338 338 339 341 341 339 335 334 336 339 342 344 345 348 351 352 350 344 340 339 344 355 2 0 358 358 0 1 359 356 355 355 358 1 2 1 357 352 347 344 339
Height
1541 1540 1539 1538 1537 1536 1535 1534 1533 1532 1531 1529 1528 1527 1526 1525 1524 1523 1522 1521 1520 1519 1518 1517 1516 1515 1514 1513 1512 1511 1510 1509 1508 1507 1506 1505 1504 1503 1502 1500 1499 1498 1496 1495 1494 1492 1491 1489 1488 1486 1484 1483 1481 1480 1478 1477 1475 1473 1471 1470 1468 1465 1464 1462 1460 1458 1457 1455 1454
1540 1539 1538 1537 1536 1535 1534 1533 1532 1530 1529 1528 1527 1526 1525 1524 1523 1522 1521 1520 1519 1518 1517 1516 1515 1514 1513 1512 1511 1510 1509 1508 1507 1506 1505 1504 1503 1501 1500 1499 1498 1497 1495 1494 1493 1491 1490 1488 1487 1485 1484 1482 1480 1479 1478 1476 1474 1473 1471 1469 1467 1465 1463 1461 1459 1458 1456 1455 1453
1539 1538 1537 1536 1535 1534 1532 1531 1530 1529 1528 1527 1526 1525 1524 1523 1522 1521 1520 1519 1518 1517 1516 1515 1514 1513 1512 1511 1510 1509 1508 1507 1506 1505 1504 1502 1501 1500 1499 1498 1496 1495 1494 1493 1491 1490 1489 1487 1486 1484 1483 1481 1480 1478 1477 1475 1474 1472 1470 1468 1466 1464 1463 1461 1459 1457 1456 1454 1452
1537 1537 1536 1535 1534 1533 1531 1530 1529 1528 1527 1526 1525 1524 1523 1522 1521 1520 1519 1518 1517 1516 1515 1514 1513 1512 1511 1510 1509 1508 1507 1506 1505 1504 1502 1501 1500 1499 1498 1496 1495 1494 1492 1491 1490 1489 1488 1486 1485 1483 1482 1480 1479 1477 1476 1474 1473 1471 1469 1468 1466 1464 1462 1460 1459 1457 1455 1454 1452
1536 1535 1535 1534 1533 1532 1530 1529 1528 1527 1526 1525 1524 1523 1522 1521 1520 1519 1518 1517 1516 1515 1514 1513 1512 1511 1510 1509 1508 1507 1506 1505 1504 1503 1501 1500 1499 1497 1496 1495 1494 1492 1491 1490 1489 1487 1486 1485 1484 1482 1481 1479 1478 1476 1475 1474 1472 1470 1469 1467 1465 1464 1462 1460 1458 1457 1455 1453 1451
1535 1534 1534 1533 1532 1530 1529 1529 1527 1526 1525 1524 1523 1522 1521 1520 1519 1518 1517 1515 1514 1514 1513 1512 1511 1510 1509 1508 1507 1506 1504 1504 1502 1501 1500 1499 1497 1496 1495 1494 1492 1491 1489 1488 1487 1486 1485 1484 1482 1481 1479 1478 1477 1475 1474 1473 1471 1469 1468 1466 1464 1463 1461 1459 1458 1456 1454 1453 1451
1534 1533 1532 1531 1530 1529 1529 1527 1526 1525 1524 1523 1522 1521 1520 1519 1518 1517 1516 1514 1514 1513 1512 1511 1510 1509 1508 1507 1505 1504 1503 1502 1501 1500 1499 1497 1496 1494 1493 1492 1491 1489 1488 1487 1485 1484 1483 1482 1481 1479 1478 1477 1475 1474 1473 1472 1470 1469 1467 1465 1464 1462 1460 1459 1457 1455 1454 1452 1450
1533 1532 1531 1530 1529 1528 1527 1526 1525 1524 1523 1522 1521 1519 1519 1518 1517 1515 1514 1513 1512 1511 1510 1509 1509 1508 1507 1505 1504 1503 1502 1501 1499 1499 1497 1496 1494 1493 1492 1491 1489 1488 1487 1485 1484 1483 1482 1480 1479 1478 1477 1475 1474 1473 1472 1470 1469 1468 1466 1464 1463 1461 1460 1458 1456 1454 1453 1451 1449
1531 1531 1530 1529 1528 1527 1526 1525 1524 1523 1522 1520 1519 1519 1518 1517 1515 1514 1513 1512 1511 1510 1509 1508 1507 1506 1505 1504 1503 1502 1501 1499 1498 1497 1496 1494 1493 1492 1490 1489 1488 1487 1485 1484 1483 1482 1480 1479 1478 1476 1475 1474 1473 1471 1470 1469 1468 1466 1465 1463 1462 1460 1459 1457 1456 1454 1452 1450 1448
1530 1529 1529 1528 1527 1526 1525 1524 1523 1522 1521 1519 1519 1518 1517 1516 1514 1514 1512 1511 1510 1509 1508 1507 1506 1505 1504 1503 1502 1500 1499 1498 1497 1496 1494 1493 1492 1491 1489 1488 1487 1485 1484 1483 1481 1480 1479 1477 1476 1475 1474 1473 1472 1470 1469 1468 1466 1465 1464 1462 1461 1459 1458 1456 1455 1453 1451 1449 1448
1529 1528 1528 1527 1526 1525 1524 1523 1522 1521 1520 1519 1518 1517 1516 1515 1514 1513 1511 1510 1509 1508 1507 1506 1505 1504 1502 1501 1500 1499 1498 1497 1496 1494 1493 1492 1490 1489 1488 1487 1485 1484 1483 1481 1480 1479 1477 1476 1474 1473 1472 1471 1470 1469 1468 1466 1465 1464 1462 1461 1460 1458 1456 1455 1454 1452 1450 1449 1447
1528 1527 1526 1525 1525 1524 1523 1522 1521 1520 1519 1518 1517 1515 1514 1514 1513 1511 1510 1509 1508 1507 1506 1505 1504 1502 1501 1500 1499 1498 1497 1495 1494 1493 1492 1490 1489 1488 1487 1485 1484 1483 1482 1480 1479 1478 1476 1474 1473 1472 1471 1469 1469 1468 1466 1465 1464 1462 1461 1460 1459 1457 1455 1454 1453 1451 1449 1448 1446
1527 1526 1525 1524 1524 1523 1522 1521 1520 1519 1518 1517 1515 1514 1513 1512 1511 1510 1509 1508 1507 1505 1504 1504 1503 1501 1500 1499 1498 1496 1495 1494 1493 1492 1490 1489 1488 1486 1485 1484 1483 1482 1480 1479 1478 1476 1475 1474 1472 1471 1469 1468 1467 1466 1465 1464 1462 1461 1460 1459 1457 1456 1454 1453 1452 1450 1449 1447 1445
1525 1525 1524 1523 1522 1521 1520 1519 1519 1517 1516 1515 1514 1513 1512 1511 1510 1509 1508 1507 1506 1504 1503 1502 1501 1500 1499 1498 1496 1495 1494 1493 1491 1490 1489 1488 1486 1485 1484 1483 1482 1480 1479 1478 1477 1475 1474 1472 1471 1469 1468 1467 1466 1465 1464 1463 1461 1460 1459 1457 1456 1454 1453 1452 1450 1449 1447 1446 1444
1524 1524 1523 1522 1521 1520 1519 1518 1517 1516 1515 1514 1513 1512 1511 1510 1509 1508 1507 1506 1505 1504 1502 1501 1500 1499 1498 1497 1495 1494 1493 1491 1490 1489 1487 1486 1485 1484 1483 1481 1480 1479 1478 1477 1475 1474 1473 1471 1470 1469 1467 1466 1464 1463 1462 1461 1460 1459 1457 1456 1454 1453 1452 1450 1449 1448 1446 1444 1443
1523 1522 1521 1520 1520 1519 1518 1517 1516 1515 1514 1513 1512 1511 1510 1509 1508 1507 1506 1505 1504 1502 1501 1500 1499 1498 1496 1495 1494 1493 1491 1490 1489 1487 1486 1484 1484 1482 1481 1480 1479 1478 1476 1475 1474 1473 1471 1470 1469 1468 1466 1465 1463 1462 1461 1459 1458 1457 1456 1454 1453 1452 1450 1449 1448 1446 1445 1444 1442
1522 1521 1520 1519 1519 1518 1517 1516 1515 1514 1513 1512 1511 1510 1509 1508 1507 1506 1505 1504 1502 1501 1500 1499 1498 1496 1495 1494 1493 1491 1490 1489 1487 1486 1484 1483 1482 1481 1480 1479 1477 1476 1475 1474 1472 1471 1470 1469 1468 1466 1465 1464 1462 1461 1459 1458 1456 1455 1454 1453 1452 1450 1449 1448 1446 1445 1444 1443 1441
1520 1519 1519 1518 1517 1516 1515 1515 1514 1513 1512 1511 1510 1509 1508 1507 1506 1505 1504 1503 1501 1500 1499 1498 1497 1495 1494 1493 1491 1490 1489 1487 1486 1485 1484 1482 1481 1480 1479 1477 1476 1475 1474 1472 1471 1470 1469 1467 1466 1465 1464 1462 1461 1459 1458 1456 1455 1454 1452 1451 1450 1449 1447 1446 1445 1444 1443 1441 1440
1519 1518 1518 1517 1516 1515 1514 1514 1513 1512 1511 1510 1509 1508 1507 1506 1505 1504 1503 1502 1500 1499 1498 1497 1495 1494 1493 1492 1490 1489 1488 1486 1485 1484 1482 1481 1480 1479 1477 1476 1474 1473 1472 1471 1470 1469 1467 1466 1465 1464 1462 1461 1459 1458 1456 1454 1453 1452 1451 1450 1449 1447 1446 1444 1444 1443 1441 1440 1439
1518 1517 1516 1516 1515 1514 1513 1512 1512 1511 1510 1509 1508 1507 1506 1505 1504 1503 1502 1501 1499 1498 1497 1496 1494 1494 1492 1491 1490 1488 1487 1485 1484 1483 1481 1480 1479 1477 1476 1474 1473 1472 1471 1470 1469 1467 1466 1465 1464 1462 1461 1459 1458 1456 1454 1453 1451 1450 1449 1448 1447 1446 1444 1443 1442 1441 1440 1439 1438
1516 1516 1515 1514 1514 1513 1512 1511 1510 1510 1509 1508 1507 1506 1505 1504 1503 1502 1501 1500 1499 1498 1496 1495 1494 1493 1491 1490 1489 1487 1486 1485 1483 1482 1480 1479 1478 1476 1475 1474 1472 1471 1470 1469 1467 1466 1465 1463 1462 1461 1459 1458 1456 1454 1453 1451 1450 1449 1448 1447 1445 1444 1443 1442 1441 1440 1439 1438 1437
1515 1514 1514 1513 1512 1512 1511 1510 1509 1509 1508 1507 1506 1505 1504 1503 1502 1501 1500 1499 1498 1497 1495 1494 1493 1492 1490 1489 1488 1486 1485 1484 1483 1481 1479 1478 1476 1475 1474 1472 1471 1470 1469 1467 1466 1464 1463 1462 1461 1459 1458 1456 1455 1453 1451 1450 1449 1447 1446 1445 1444 1443 1442 1441 1440 1439 1438 1437 1435
1514 1513 1513 1512 1511 1510 1510 1509 1508 1508 1507 1506 1505 1504 1503 1502 1501 1500 1499 1498 1497 1496 1495 1494 1493 1491 1490 1489 1487 1485 1484 1483 1481 1480 1478 1477 1475 1474 1473 1471 1470 1469 1467 1466 1465 1463 1462 1460 1459 1458 1457 1455 1454 1452 1451 1449 1448 1446 1444 1443 1442 1442 1441 1440 1439 1438 1437 1436 1434
1512 1512 1511 1511 1510 1509 1509 1508 1507 1506 1506 1505 1504 1503 1502 1501 1500 1499 1498 1497 1496 1495 1494 1493 1492 1490 1489 1488 1486 1485 1483 1481 1480 1478 1477 1476 1474 1473 1472 1470 1469 1468 1466 1465 1464 1462 1461 1460 1459 1458 1456 1455 1453 1452 1450 1449 1447 1444 1443 1441 1441 1440 1439 1438 1438 1437 1436 1434 1434
1511 1511 1510 1509 1509 1508 1508 1507 1506 1505 1505 1504 1503 1502 1501 1500 1499 1498 1497 1496 1495 1494 1493 1492 1490 1489 1488 1486 1485 1484 1482 1480 1479 1477 1476 1475 1474 1472 1471 1469 1468 1467 1465 1464 1463 1462 1461 1460 1459 1458 1456 1454 1453 1451 1449 1447 1445 1443 1441 1440 1440 1439 1438 1437 1436 1435 1434 1433 1432
1510 1509 1509 1508 1508 1507 1506 1506 1505 1504 1504 1503 1502 1501 1500 1499 1498 1497 1496 1495 1494 1493 1492 1491 1489 1488 1487 1485 1484 1483 1481 1480 1478 1477 1475 1474 1473 1471 1470 1469 1467 1466 1464 1463 1462 1461 1460 1460 1459 1457 1455 1454 1452 1450 1448 1446 1444 1442 1441 1440 1439 1438 1437 1435 1434 1434 1433 1432 1431
1508 1508 1508 1507 1506 1506 1505 1504 1504 1503 1503 1502 1501 1500 1499 1498 1497 1496 1495 1494 1493 1492 1491 1490 1489 1487 1486 1484 1483 1482 1480 1479 1478 1476 1475 1473 1472 1470 1469 1468 1466 1465 1464 1462 1461 1460 1459 1459 1458 1456 1455 1453 1451 1449 1447 1445 1444 1442 1441 1440 1439 1437 1436 1434 1433 1432 1432 1431 1430
1507 1507 1506 1506 1505 1505 1504 1504 1503 1502 1501 1500 1499 1499 1498 1497 1496 1495 1494 1493 1492 1491 1490 1489 1487 1486 1485 1484 1482 1481 1480 1479 1477 1476 1474 1473 1471 1470 1469 1467 1465 1464 1463 1462 1460 1459 1459 1458 1456 1455 1454 1452 1450 1449 1447 1446 1444 1443 1441 1439 1438 1436 1434 1433 1432 1431 1430 1430 1429
1506 1505 1505 1504 1504 1504 1503 1502 1502 1501 1500 1499 1499 1498 1497 1496 1495 1494 1493 1492 1491 1490 1489 1487 1486 1485 1484 1483 1481 1480 1479 1478 1477 1475 1474 1472 1471 1469 1468 1466 1465 1464 1462 1461 1460 1459 1458 1457 1455 1454 1453 1451 1450 1448 1446 1444 1443 1441 1439 1438 1436 1435 1433 1432 1431 1430 1429 1428 1427
1504 1504 1504 1503 1503 1502 1502 1501 1501 1500 1499 1498 1497 1497 1496 1495 1494 1493 1492 1491 1490 1489 1488 1486 1485 1484 1483 1482 1481 1479 1478 1477 1476 1474 1473 1471 1470 1469 1467 1466 1464 1463 1462 1460 1459 1458 1457 1456 1454 1453 1452 1450 1449 1446 1444 1442 1440 1439 1438 1436 1434 1433 1431 1430 1429 1429 1428 1427 1426
1503 1503 1502 1502 1502 1501 1501 1500 1499 1499 1498 1497 1496 1495 1495 1494 1493 1492 1491 1490 1489 1488 1487 1486 1485 1484 1483 1481 1480 1479 1477 1476 1475 1474 1472 1471 1469 1468 1466 1465 1464 1462 1461 1459 1458 1457 1456 1455 1454 1452 1451 1449 1447 1444 1442 1440 1438 1437 1436 1434 1433 1431 1430 1429 1428 1427 1426 1425 1424
1502 1501 1501 1501 1500 1500 1500 1499 1499 1498 1497 1496 1495 1494 1494 1493 1492 1491 1490 1489 1488 1487 1486 1485 1484 1483 1481 1480 1479 1478 1476 1475 1474 1473 1471 1470 1469 1467 1466 1464 1463 1462 1460 1459 1458 1456 1455 1454 1453 1451 1449 1447 1445 1443 1441 1439 1437 1436 1434 1433 1431 1429 1428 1427 1426 1425 1425 1424 1423
1500 1500 1500 1499 1499 1499 1499 1498 1497 1497 1496 1495 1494 1494 1493 1492 1491 1490 1489 1488 1487 1486 1485 1484 1483 1481 1480 1479 1478 1477 1475 1474 1473 1472 1471 1469 1468 1467 1465 1464 1462 1461 1460 1458 1457 1456 1455 1454 1452 1450 1448 1446 1444 1442 1440 1439 1437 1436 1434 1432 1429 1428 1426 1425 1424 1424 1424 1423 1423
1499 1499 1499 1498 1498 1498 1497 1497 1496 1495 1495 1494 1493 1493 1492 1491 1490 1489 1488 1487 1486 1485 1484 1483 1482 1481 1479 1479 1477 1476 1474 1474 1472 1471 1470 1469 1467 1466 1464 1463 1462 1460 1459 1458 1456 1455 1454 1452 1450 1449 1447 1445 1443 1441 1440 1438 1437 1434 1432 1430 1428 1426 1424 1424 1424 1423 1423 1423 1422
1498 1497 1497 1497 1497 1496 1496 1496 1495 1494 1494 1493 1492 1491 1491 1490 1489 1488 1487 1486 1485 1484 1483 1482 1481 1480 1479 1478 1476 1475 1474 1472 1471 1470 1469 1468 1467 1465 1464 1463 1461 1460 1459 1457 1456 1454 1453 1451 1449 1447 1445 1444 1443 1441 1439 1437 1435 1433 1431 1429 1426 1424 1423 1423 1423 1423 1422 1422 1421
1496 1496 1496 1496 1495 1495 1495 1494 1494 1493 1492 1492 1491 1490 1490 1489 1488 1487 1486 1485 1484 1483 1482 1481 1480 1479 1478 1476 1475 1474 1473 1472 1470 1469 1468 1467 1466 1464 1463 1462 1460 1459 1458 1457 1455 1453 1452 1450 1448 1446 1444 1443 1442 1441 1439 1436 1434 1433 1431 1428 1426 1424 1424 1423 1423 1422 1422 1422 1421
1495 1495 1495 1494 1494 1494 1494 1493 1493 1492 1491 1491 1490 1489 1489 1488 1487 1486 1485 1484 1483 1482 1481 1480 1479 1478 1477 1475 1474 1473 1472 1471 1470 1469 1467 1466 1465 1464 1462 1461 1459 1458 1457 1456 1454 1452 1451 1449 1447 1445 1444 1443 1442 1440 1438 1436 1434 1433 1431 1429 1427 1425 1424 1424 1423 1422 1421 1421 1420
1494 1494 1493 1493 1493 1493 1492 1492 1491 1491 1490 1489 1489 1489 1488 1487 1486 1485 1484 1483 1482 1481 1479 1479 1478 1477 1475 1474 1473 1472 1471 1470 1469 1468 1467 1465 1464 1463 1462 1460 1459 1458 1456 1455 1453 1451 1450 1448 1447 1445 1444 1443 1441 1439 1437 1436 1434 1433 1431 1429 1427 1426 1424 1424 1423 1422 1421 1421 1420
1492 1492 1492 1492 1492 1491 1491 1491 1490 1490 1489 1489 1488 1487 1487 1486 1485 1484 1483 1482 1481 1480 1479 1478 1477 1476 1475 1474 1472 1471 1470 1469 1469 1468 1466 1465 1464 1463 1462 1460 1459 1457 1456 1454 1453 1451 1449 1448 1447 1446 1445 1443 1441 1439 1437 1436 1434 1433 1431 1429 1427 1426 1424 1423 1422 1422 1421 1421 1420
1491 1490 1490 1490 1490 1490 1490 1489 1489 1489 1488 1488 1487 1486 1485 1485 1484 1483 1482 1481 1480 1479 1478 1477 1476 1475 1474 1473 1472 1470 1469 1469 1468 1467 1466 1464 1464 1462 1461 1460 1458 1457 1455 1454 1452 1451 1449 1448 1447 1446 1444 1442 1440 1439 1437 1436 1434 1433 1431 1429 1428 1426 1424 1423 1423 1422 1421 1420 1420
1489 1489 1489 1489 1489 1489 1489 1488 1488 1488 1487 1486 1486 1485 1484 1484 1483 1482 1481 1480 1479 1478 1477 1476 1475 1474 1473 1472 1471 1470 1469 1468 1467 1466 1465 1464 1463 1462 1461 1459 1458 1456 1455 1453 1452 1450 1449 1448 1448 1446 1444 1442 1440 1439 1437 1436 1434 1433 1431 1429 1428 1426 1424 1423 1422 1422 1421 1420 1419